Regional Weather Roundup
Issued by NWS

Home | Current Version | Previous Version | Text Only | Print | Product List | Glossary Off
Versions: 1 2 3 4 5 6 7 8 9 10 11 12 13 14 15 16 17 18 19 20 21 22 23 24 25 26 27 28

000
ASUS45 KCYS 310510
RWRWY

WYOMING REGIONAL WEATHER ROUNDUP
NATIONAL WEATHER SERVICE CHEYENNE WY
1100 PM MDT TUE AUG 30 2016

NOTE:  "FAIR" INDICATES FEW OR NO CLOUDS BELOW 12,000 FEET
WITH NO SIGNIFICANT WEATHER AND/OR OBSTRUCTIONS TO VISIBILITY.

WYZ001-310600-
YELLOWSTONE NATIONAL PARK

CITY           SKY/WX    TMP DP  RH WIND       PRES   REMARKS
LK YELLOWSTONE   N/A     51  33  50 NW3       30.37S
W YELLOWSTONE  NOT AVBL

$$
WYZ002>013-054>058-071-098>099-310600-
NORTHERN WYOMING

CITY           SKY/WX    TMP DP  RH WIND       PRES   REMARKS
JACKSON        FAIR      57  30  35 NE5       30.24S
CODY           FAIR      72  30  21 E3        30.15F
GREYBULL       FAIR      78  28  16 SE6       30.08R
WORLAND        FAIR      73  33  23 SE13      30.10R
SHERIDAN       FAIR      78  34  20 S14G21    30.10R
BUFFALO        FAIR      73  35  25 S13       30.24R
GILLETTE       FAIR      69  46  43 S12       30.21R
HULETT         FAIR      72  50  46 SE8       30.23S
NEWCASTLE      FAIR      72  50  46 SE14      30.25R

$$
WYZ014>020-022>026-101>103-310600-
CENTRAL WYOMING

CITY           SKY/WX    TMP DP  RH WIND       PRES   REMARKS
BIG PINEY      FAIR      61  27  27 S3        30.32S
PINEDALE       FAIR      59  28  31 SE5       30.34S
DUBOIS         FAIR      63  27  25 SW6       30.33S
LANDER         FAIR      69  26  20 CALM      30.22S
RIVERTON       FAIR      71  26  18 CALM      30.21R
CASPER         FAIR      65  47  52 E8        30.25R
DOUGLAS        FAIR      63  49  60 SE10      30.28S

$$
WYZ021-027>030-104>119-310600-
SOUTHERN WYOMING

CITY           SKY/WX    TMP DP  RH WIND       PRES   REMARKS
EVANSTON       FAIR      66  21  18 VRB3      30.30S
FORT BRIDGER   FAIR      64  20  18 S13       30.33S
ROCK SPRINGS   FAIR      67  24  19 E13       30.29S
DIXON          FAIR      62  36  38 E5        30.32R
RAWLINS        FAIR      61  41  47 NE12      30.35R
SARATOGA       FAIR      61  39  44 SE12G17   30.37R
LARAMIE        FAIR      54  48  80 S9        30.43R
CHEYENNE       FAIR      56  52  86 SW7       30.39R
TORRINGTON     FAIR      62  57  83 E7        30.26R
PINE BLUFFS    FAIR      54  50  87 CALM      30.34R

$$




USA.gov is the U.S. government's official web portal to all federal, state and local government web resources and services.